星链-5085 (STARLINK-5085 )

导读

STARLINK-5085是美国SpaceX公司于2023年1月31日发射的星链(Starlink)系列互联网通信卫星,属于第一代星链星座组网卫星。该卫星运行于近地轨道,配备氪离子推进系统与相控阵通信天线,为全球用户提供低延迟宽带互联网接入服务,尤其支持偏远地区网络覆盖与应急通信需求,是SpaceX构建全球巨型卫星星座的重要组成部分,有助于完善星链系统的全球覆盖能力。

Basic Information
目录编号:
55392
目录名称:
STARLINK-5085
国际标识:
2023-014B
轨道中心:
EARTH
卫星名称:
星链-5085
卫星全名:
星链-5085 (STARLINK-5085 )
卫星状态:
在轨 (已飞行1313 天)
发射日期:
2023-01-31 UTC
国别 :
美国 (US)
星等 :
--
Orbit Information
数据来源 国际轨道数据
星历时间: 2026-09-04T22:54:59+0800
12小时前
查看轨道信息
半长轴: 6950.182km
偏心率: 0.0003435
轨道倾角: 70.000°
近地点辐角 268.603°
升交点赤经 313.196°
平近点角 91.473°
近地点: 569.657km
远地点: 574.433km
周期: 96.107分钟
每日圈数: 14.983338
Detailed Information
固有亮度:
5
最大亮度:
2.5
卫星平台:
Starlink v1.5
覆盖范围:
全球
运营商:
太空探索技术公司
运营商所在国:
美国
制造商(研发单位):
太空探索技术公司
制造商所在国:
美国
使用方式:
暂无
Satellite Introduction
星链(Starlink)计划是由太空探索技术公司(SpaceX)提出的一个巨型低轨卫星互联网星座项目,计划在2019年至2024年间在太空搭建由约1.2万颗卫星组成的“星链”网络,其中1584颗将部署在地球上空550千米处的近地轨道,并从2020年开始工作。该卫星仍在工作。
2D Orbit Map
3D Orbit Map
Orbit Altitude Analysis Chart
Orbit Inclination Analysis Chart
Orbit Comprehensive Analysis Chart
View Comprehensive Chart
Conjunction Data List
Event ID Objects TCA Miss Dist (km) Collision Risk Probability Collision Risk Index (CRI) Action
CDM_260903-065102-603605-539228
2026-09-03T
06:51:10+0000
1.948 km
极远距离
3.103768E-6 低风险 0.45
CDM_260903-051402-603605-539228
2026-09-03T
05:14:40+0000
2.730 km
极远距离
1.537663E-6 低风险 0.39